Lumberton, NJ

4:43 PM EST on February 10, 2016 (GMT -0500)
South Jersey Regional

Weather History for KVAY - February, 2013

Change the Weather History Date:

Sunday, February 24, 2013

  Actual Average (KWRI) Record (KWRI)
Temperature  
Mean Temperature 41 °F -  
Max Temperature 48 °F 44 °F 53 °F (2002)
Min Temperature 33 °F 26 °F 1 °F (2015)
Degree Days  
Heating Degree Days 24    
Moisture  
Dew Point 32 °F    
Average Humidity 77    
Maximum Humidity 100    
Minimum Humidity 49    
Precipitation  
Precipitation 0.00 in - - ()
Sea Level Pressure  
Sea Level Pressure 29.84 in    
Wind  
Wind Speed 8 mph (NW)    
Max Wind Speed 16 mph    
Max Gust Speed 28 mph    
Visibility 8 miles    
Events      
Averages and records for this station are not official NWS values.
T = Trace of Precipitation, MM = Missing Value Source: NWS Daily Summary

Daily Weather History Graph

Daily Weather History Graph

Search for Another Location

Airport or City:

Trip Planner

Search our weather history database for the weather conditions in past years. The results will help you decide how hot, cold, wet, or windy it might be!

Date:

Astronomy

Feb. 24, 2013 Rise Set
Actual Time 6:39 AM EST 5:46 PM EST
Civil Twilight 6:12 AM EST 6:13 PM EST
Nautical Twilight 5:40 AM EST 6:44 PM EST
Astronomical Twilight 5:09 AM EST 7:16 PM EST
Moon 4:54 PM EST (2/24) 5:35 AM EST (2/24)
Length of Visible Light 12h 00m
Length of Day
11h 06m
Waxing Gibbous, 99% of the Moon is Illuminated
Feb 24
Waxing Gibbous
Feb 25
Full
Mar 4
Last Quarter
Mar 11
New
Mar 19
First Quarter

Hourly Weather History & Observations

Time (EST) Temp. Windchill Dew Point Humidity Pressure Visibility Wind Dir Wind Speed Gust Speed Precip Events Conditions
12:42 AM 37.4 °F 30.8 °F 35.6 °F 93% 29.81 in 2.5 mi North 9.2 mph - N/A   Overcast
12:54 AM 37.9 °F 32.1 °F 36.0 °F 93% 29.82 in 2.5 mi North 8.1 mph - N/A   Overcast
1:25 AM 37.4 °F 32.1 °F 35.6 °F 93% 29.81 in 4.0 mi North 6.9 mph - N/A   Overcast
1:54 AM 37.9 °F 32.7 °F 36.0 °F 93% 29.81 in 2.5 mi North 6.9 mph - N/A   Overcast
2:15 AM 37.4 °F 33.8 °F 37.4 °F 100% 29.82 in 1.8 mi NNW 4.6 mph - N/A   Overcast
2:24 AM 37.4 °F 32.8 °F 35.6 °F 93% 29.82 in 2.5 mi NNW 5.8 mph - N/A   Overcast
2:33 AM 37.4 °F 33.8 °F 35.6 °F 93% 29.82 in 3.0 mi NNW 4.6 mph - N/A   Overcast
2:42 AM 37.4 °F 32.8 °F 35.6 °F 93% 29.82 in 2.0 mi NNW 5.8 mph - N/A   Overcast
2:54 AM 37.0 °F 33.3 °F 36.0 °F 96% 29.82 in 2.5 mi NNW 4.6 mph - N/A   Overcast
3:04 AM 37.4 °F 32.1 °F 35.6 °F 93% 29.80 in 4.0 mi North 6.9 mph - N/A   Overcast
3:54 AM 37.0 °F 31.6 °F 36.0 °F 96% 29.78 in 10.0 mi North 6.9 mph - N/A   Overcast
4:04 AM 37.4 °F 32.8 °F 35.6 °F 93% 29.77 in 10.0 mi North 5.8 mph - N/A   Overcast
4:47 AM 37.4 °F 33.8 °F 35.6 °F 93% 29.78 in 10.0 mi Variable 4.6 mph - N/A   Overcast
4:54 AM 37.0 °F 33.3 °F 36.0 °F 96% 29.79 in 10.0 mi NW 4.6 mph - N/A   Overcast
5:12 AM 37.4 °F 34.9 °F 35.6 °F 93% 29.78 in 10.0 mi NW 3.5 mph - N/A   Overcast
5:54 AM 37.9 °F 34.4 °F 36.0 °F 93% 29.79 in 10.0 mi NNW 4.6 mph - N/A   Overcast
6:54 AM 37.0 °F 32.4 °F 35.1 °F 93% 29.79 in 10.0 mi NNW 5.8 mph - N/A   Overcast
7:14 AM 37.4 °F 34.9 °F 35.6 °F 93% 29.80 in 10.0 mi NNW 3.5 mph - N/A   Overcast
7:30 AM 37.4 °F 34.9 °F 35.6 °F 93% 29.80 in 10.0 mi NNW 3.5 mph - N/A   Scattered Clouds
8:54 AM 39.9 °F 35.8 °F 36.0 °F 86% 29.82 in 10.0 mi WNW 5.8 mph - N/A   Partly Cloudy
9:13 AM 41.0 °F 39.0 °F 37.4 °F 87% 29.81 in 10.0 mi Variable 3.5 mph - N/A   Mostly Cloudy
9:54 AM 45.0 °F 40.6 °F 37.0 °F 74% 29.81 in 10.0 mi NW 8.1 mph 16.1 mph N/A   Mostly Cloudy
10:10 AM 44.6 °F 39.2 °F 37.4 °F 76% 29.81 in 10.0 mi WNW 10.4 mph 18.4 mph N/A   Scattered Clouds
10:54 AM 46.9 °F - 35.1 °F 63% 29.82 in 10.0 mi WNW 11.5 mph 16.1 mph N/A   Scattered Clouds
11:54 AM 48.0 °F - 30.9 °F 52% 29.81 in 10.0 mi WNW 13.8 mph 21.9 mph N/A   Mostly Cloudy
12:54 PM 48.0 °F - 30.0 °F 50% 29.80 in 10.0 mi WNW 11.5 mph 20.7 mph N/A   Mostly Cloudy
1:54 PM 46.0 °F 39.6 °F 28.9 °F 51% 29.81 in 10.0 mi NW 15.0 mph 20.7 mph N/A   Overcast
2:54 PM 45.0 °F 40.1 °F 27.0 °F 49% 29.82 in 10.0 mi WNW 9.2 mph 26.5 mph N/A   Overcast
3:54 PM 43.0 °F 37.2 °F 25.0 °F 49% 29.85 in 10.0 mi WNW 10.4 mph 27.6 mph N/A   Mostly Cloudy
4:54 PM 39.9 °F 32.5 °F 23.0 °F 51% 29.88 in 10.0 mi WNW 12.7 mph 24.2 mph N/A   Overcast
5:54 PM 39.0 °F 30.3 °F 21.9 °F 50% 29.92 in 10.0 mi NW 16.1 mph 26.5 mph N/A   Overcast
6:54 PM 37.0 °F 27.7 °F 21.0 °F 52% 29.96 in 10.0 mi WNW 16.1 mph 25.3 mph N/A   Scattered Clouds
7:54 PM 36.0 °F 29.0 °F 19.9 °F 52% 29.99 in 10.0 mi WNW 9.2 mph - N/A   Clear
8:54 PM 35.1 °F 27.9 °F 19.9 °F 54% 30.00 in 10.0 mi NW 9.2 mph 16.1 mph N/A   Clear
9:54 PM 35.1 °F 28.6 °F 19.0 °F 52% 30.02 in 10.0 mi WNW 8.1 mph - N/A   Clear
10:54 PM 34.0 °F 28.0 °F 19.0 °F 54% 30.02 in 10.0 mi Variable 6.9 mph - N/A   Clear
11:54 PM 33.1 °F 27.7 °F 19.0 °F 56% 30.04 in 10.0 mi WNW 5.8 mph - N/A   Clear